Regional Weather Roundup
Issued by NWS Sioux Falls, SD

Home | Current Version | Previous Version | Text Only | Print | Product List | Glossary On
Versions: 1 2 3 4 5 6 7 8 9 10 11 12 13 14 15 16 17 18 19 20 21 22 23 24 25 26 27 28 29 30 31 32 33 34 35 36 37 38 39 40 41 42 43 44 45 46 47 48 49 50
000
ASUS43 KFSD 142110
RWRFSD

WEATHER ROUNDUP FOR SE SOUTH DAKOTA/SW MINNESOTA/NW IOWA
NATIONAL WEATHER SERVICE SIOUX FALLS SD
300 PM CST THU DEC 14 2017

NOTE: "FAIR" INDICATES FEW OR NO CLOUDS BELOW 12,000 FEET WITH NO
SIGNIFICANT WEATHER AND OR OBSTRUCTIONS TO VISIBILITY.


SDZ038>040-050-052>070-142200-
SOUTHEAST SOUTH DAKOTA

CITY           SKY/WX    TMP DP  RH WIND       PRES   REMARKS
BROOKINGS      MIX PCPN  31  29  92 NW9       30.02R WCI  23
CHAMBERLAIN    CLOUDY    35  32  87 N16G30    30.12R WCI  26
HURON          CLOUDY    34  28  79 N15       30.08R WCI  24
MADISON        CLOUDY    32  32 100 NW12      30.03R WCI  23
MITCHELL       CLOUDY    36  31  82 N15       30.09R
SIOUX FALLS    FLURRIES  34  28  79 NW10      30.04R WCI  26
WINNER         FLURRIES  35  31  85 N15       30.14R WCI  25
YANKTON        CLOUDY    37  26  64 NW10      30.07R
$$

MNZ071-072-080-081-089-090-097-098-142200-
SOUTHWEST MINNESOTA

CITY           SKY/WX    TMP DP  RH WIND       PRES   REMARKS
FAIRMONT       CLOUDY    27  21  78 NW12      30.03S WCI  17
JACKSON        CLOUDY    30  21  69 MISG      30.02R
LUVERNE        CLOUDY    32  27  80 NW6       30.03S WCI  26
MARSHALL       NOT AVBL
MONTEVIDEO     CLOUDY    27  21  80 N9        30.06R WCI  17
PIPESTONE      CLOUDY    30  25  80 CALM      30.01R
REDWOOD FALLS  CLOUDY    27  19  72 NW8       30.04R WCI  19
TRACY          CLOUDY    28  23  80 NW9       30.04R WCI  20
WINDOM           N/A     28  14  54 NW9       30.02S WCI  20
WORTHINGTON    FLURRIES  30  24  78 NW9       30.03R WCI  22
$$

IAZ001>003-012>014-020>022-031-032-NEZ013-014-SDZ071-142200-
NORTHWEST IOWA

CITY           SKY/WX    TMP DP  RH WIND       PRES   REMARKS
CHEROKEE       CLOUDY    34  27  75 N6        30.05R WCI  29
DENISON        CLOUDY    36  23  60 NW12      30.06S
ESTHERVILLE    CLOUDY    30  21  69 NW16      30.02R WCI  19
LE MARS        CLOUDY    36  27  69 NW3       30.05S
ORANGE CITY    FLURRIES  36  30  80 NW6       30.04R
SHELDON        CLOUDY    34  27  75 NW9       30.02S WCI  26
SIOUX CITY     CLOUDY    38  25  59 NW10      30.06R
SPENCER        CLOUDY    33  23  66 NW12      30.03R WCI  24
STORM LAKE       N/A     32  23  69 NW14      30.04R WCI  22
$$

ABBREVIATIONS USED IN REMARKS
   TC - TEMPERATURE IN CELSIUS
  WCI - WIND CHILL INDEX
   HX - HEAT INDEX
  VSB - VISIBILITY





USA.gov is the U.S. government's official web portal to all federal, state and local government web resources and services.